Meteo pe oră la Abdulgazino

Astăzi, 29 Iulie, Joi

Timp Temperatura Precipitaţii Vânt Presiune Umiditate
00:00 +9°C° 0 mm 1 m/s 709 mmHg 75%
01:00 +9°C° 0 mm 1 m/s 709 mmHg 76%
02:00 +8°C° 0 mm 1 m/s 709 mmHg 77%
03:00 +8°C° 0 mm 1 m/s 709 mmHg 77%
04:00 +8°C° 0 mm 1 m/s 709 mmHg 77%
05:00 +10°C° 0 mm 1 m/s 709 mmHg 70%
06:00 +12°C° 0 mm 1 m/s 710 mmHg 63%
07:00 +14°C° 0 mm 1 m/s 710 mmHg 56%
08:00 +16°C° 0 mm 2 m/s 710 mmHg 51%
09:00 +17°C° 0 mm 2 m/s 710 mmHg 45%
10:00 +19°C° 0 mm 3 m/s 710 mmHg 40%
11:00 +20°C° 0 mm 3 m/s 710 mmHg 37%
12:00 +21°C° 0 mm 3 m/s 710 mmHg 34%
13:00 +22°C° 0 mm 3 m/s 710 mmHg 31%
14:00 +22°C° 0 mm 4 m/s 709 mmHg 30%
15:00 +23°C° 0 mm 4 m/s 709 mmHg 30%
16:00 +23°C° 0 mm 4 m/s 709 mmHg 29%
17:00 +21°C° 0 mm 3 m/s 709 mmHg 36%
18:00 +20°C° 0 mm 2 m/s 709 mmHg 43%
19:00 +19°C° 0 mm 1 m/s 708 mmHg 50%
20:00 +18°C° 0 mm 1 m/s 708 mmHg 52%
21:00 +15°C° 0 mm 1 m/s 708 mmHg 54%
22:00 +14°C° 0 mm 1 m/s 708 mmHg 55%
23:00 +14°C° 0 mm 1 m/s 708 mmHg 54%

Mâine, 30 Iulie, Vineri

Timp Temperatura Precipitaţii Vânt Presiune Umiditate
00:00 +14°C° 0 mm 1 m/s 708 mmHg 53%
01:00 +14°C° 0 mm 1 m/s 708 mmHg 51%
02:00 +14°C° 0 mm 1 m/s 708 mmHg 51%
03:00 +15°C° 0 mm 1 m/s 708 mmHg 51%
04:00 +15°C° 0 mm 1 m/s 708 mmHg 51%
05:00 +14°C° 0.1 mm 1 m/s 708 mmHg 62%
06:00 +14°C° 0.1 mm 2 m/s 708 mmHg 74%
07:00 +13°C° 0.1 mm 2 m/s 708 mmHg 85%
08:00 +13°C° 0 mm 3 m/s 708 mmHg 81%
09:00 +14°C° 0 mm 4 m/s 707 mmHg 76%
10:00 +15°C° 0 mm 4 m/s 707 mmHg 72%
11:00 +19°C° 0 mm 5 m/s 707 mmHg 62%
12:00 +21°C° 0 mm 6 m/s 707 mmHg 52%
13:00 +23°C° 0 mm 8 m/s 707 mmHg 42%
14:00 +24°C° 0 mm 7 m/s 707 mmHg 40%
15:00 +26°C° 0 mm 7 m/s 706 mmHg 38%
16:00 +28°C° 0 mm 6 m/s 706 mmHg 36%
17:00 +26°C° 0 mm 5 m/s 706 mmHg 45%
18:00 +25°C° 0 mm 4 m/s 706 mmHg 54%
19:00 +24°C° 0 mm 3 m/s 706 mmHg 62%
20:00 +21°C° 0 mm 3 m/s 706 mmHg 70%
21:00 +19°C° 0 mm 2 m/s 706 mmHg 78%
22:00 +17°C° 0 mm 2 m/s 706 mmHg 86%
23:00 +18°C° 0 mm 1 m/s 706 mmHg 88%

Poimâine, 31 Iulie, Sâmbătă

Timp Temperatura Precipitaţii Vânt Presiune Umiditate
00:00 +16°C° 0 mm 1 m/s 706 mmHg 90%
01:00 +16°C° 0 mm 1 m/s 707 mmHg 92%
02:00 +15°C° 0 mm 1 m/s 707 mmHg 91%
03:00 +15°C° 0 mm 1 m/s 707 mmHg 91%
04:00 +15°C° 0 mm 1 m/s 707 mmHg 91%
05:00 +18°C° 0 mm 1 m/s 707 mmHg 84%
06:00 +19°C° 0 mm 1 m/s 708 mmHg 77%
07:00 +21°C° 0 mm 1 m/s 708 mmHg 70%
08:00 +23°C° 0 mm 1 m/s 708 mmHg 65%
09:00 +24°C° 0 mm 1 m/s 709 mmHg 59%
10:00 +25°C° 0 mm 2 m/s 709 mmHg 54%
11:00 +26°C° 0 mm 2 m/s 709 mmHg 52%
12:00 +27°C° 0 mm 3 m/s 709 mmHg 49%
13:00 +28°C° 0 mm 3 m/s 709 mmHg 47%
14:00 +28°C° 0.1 mm 3 m/s 708 mmHg 44%
15:00 +29°C° 0.1 mm 3 m/s 708 mmHg 41%
16:00 +30°C° 0.1 mm 3 m/s 708 mmHg 39%
17:00 +28°C° 0.1 mm 3 m/s 708 mmHg 48%
18:00 +26°C° 0.1 mm 3 m/s 709 mmHg 58%
19:00 +24°C° 0.1 mm 3 m/s 709 mmHg 67%
20:00 +21°C° 0.2 mm 3 m/s 709 mmHg 75%
21:00 +20°C° 0.2 mm 2 m/s 708 mmHg 82%
22:00 +18°C° 0.2 mm 2 m/s 708 mmHg 90%
23:00 +19°C° 0 mm 1 m/s 708 mmHg 88%

1 August, Duminică

Timp Temperatura Precipitaţii Vânt Presiune Umiditate
00:00 +19°C° 0 mm 1 m/s 708 mmHg 87%
01:00 +19°C° 0 mm 1 m/s 708 mmHg 85%
02:00 +18°C° 0 mm 1 m/s 708 mmHg 86%
03:00 +18°C° 0 mm 1 m/s 708 mmHg 87%
04:00 +16°C° 0 mm 2 m/s 708 mmHg 88%
05:00 +18°C° 0 mm 2 m/s 708 mmHg 83%
06:00 +19°C° 0 mm 2 m/s 708 mmHg 79%
07:00 +22°C° 0 mm 1 m/s 708 mmHg 74%
08:00 +22°C° 0.1 mm 3 m/s 708 mmHg 70%
09:00 +23°C° 0.1 mm 4 m/s 709 mmHg 67%
10:00 +23°C° 0.1 mm 5 m/s 709 mmHg 63%
11:00 +26°C° 0 mm 5 m/s 709 mmHg 56%
12:00 +27°C° 0 mm 5 m/s 709 mmHg 49%
13:00 +29°C° 0 mm 5 m/s 709 mmHg 42%
14:00 +29°C° 0 mm 5 m/s 709 mmHg 42%
15:00 +28°C° 0 mm 6 m/s 709 mmHg 42%
16:00 +28°C° 0 mm 6 m/s 709 mmHg 43%
17:00 +27°C° 0 mm 5 m/s 709 mmHg 48%
18:00 +25°C° 0 mm 4 m/s 709 mmHg 54%
19:00 +23°C° 0 mm 2 m/s 709 mmHg 59%
20:00 +21°C° 0 mm 2 m/s 709 mmHg 63%
21:00 +20°C° 0 mm 1 m/s 710 mmHg 67%
22:00 +18°C° 0 mm 1 m/s 710 mmHg 70%
23:00 +18°C° 0 mm 1 m/s 710 mmHg 69%

2 August, Luni

Timp Temperatura Precipitaţii Vânt Presiune Umiditate
00:00 +16°C° 0 mm 1 m/s 710 mmHg 69%
01:00 +16°C° 0 mm 1 m/s 710 mmHg 68%
02:00 +16°C° 0 mm 1 m/s 710 mmHg 69%
03:00 +16°C° 0 mm 1 m/s 710 mmHg 70%
04:00 +15°C° 0 mm 1 m/s 710 mmHg 71%
05:00 +18°C° 0 mm 1 m/s 710 mmHg 66%
06:00 +20°C° 0 mm 1 m/s 711 mmHg 61%
07:00 +22°C° 0 mm 1 m/s 711 mmHg 56%
08:00 +24°C° 0 mm 2 m/s 711 mmHg 49%
09:00 +26°C° 0 mm 2 m/s 712 mmHg 43%
10:00 +28°C° 0 mm 3 m/s 712 mmHg 37%
11:00 +29°C° 0 mm 3 m/s 712 mmHg 34%
12:00 +29°C° 0 mm 3 m/s 712 mmHg 32%
13:00 +30°C° 0 mm 3 m/s 712 mmHg 30%
14:00 +30°C° 0 mm 3 m/s 712 mmHg 29%
15:00 +30°C° 0 mm 3 m/s 712 mmHg 29%
16:00 +31°C° 0 mm 3 m/s 711 mmHg 28%
17:00 +29°C° 0 mm 3 m/s 711 mmHg 36%
18:00 +27°C° 0 mm 2 m/s 711 mmHg 44%
19:00 +25°C° 0 mm 1 m/s 711 mmHg 51%
20:00 +23°C° 0 mm 1 m/s 711 mmHg 54%
21:00 +22°C° 0 mm 1 m/s 711 mmHg 56%
22:00 +18°C° 0 mm 0 m/s 711 mmHg 59%
23:00 +18°C° 0 mm 0 m/s 711 mmHg 59%

3 August, Marţi

Timp Temperatura Precipitaţii Vânt Presiune Umiditate
00:00 +19°C° 0 mm 1 m/s 711 mmHg 59%
01:00 +19°C° 0 mm 1 m/s 711 mmHg 59%
02:00 +19°C° 0 mm 1 m/s 711 mmHg 59%
03:00 +19°C° 0 mm 1 m/s 711 mmHg 59%
04:00 +18°C° 0 mm 1 m/s 711 mmHg 59%
05:00 +20°C° 0 mm 1 m/s 711 mmHg 55%
06:00 +22°C° 0 mm 1 m/s 712 mmHg 51%
07:00 +24°C° 0 mm 1 m/s 712 mmHg 47%
08:00 +27°C° 0 mm 1 m/s 712 mmHg 41%
09:00 +29°C° 0 mm 1 m/s 712 mmHg 35%
10:00 +31°C° 0 mm 2 m/s 713 mmHg 29%
11:00 +32°C° 0 mm 2 m/s 713 mmHg 27%
12:00 +32°C° 0 mm 2 m/s 713 mmHg 26%
13:00 +34°C° 0 mm 2 m/s 713 mmHg 24%
14:00 +34°C° 0 mm 2 m/s 712 mmHg 27%
15:00 +32°C° 0 mm 2 m/s 712 mmHg 29%
16:00 +32°C° 0 mm 2 m/s 712 mmHg 32%
17:00 +30°C° 0 mm 2 m/s 712 mmHg 37%
18:00 +29°C° 0 mm 1 m/s 711 mmHg 42%
19:00 +27°C° 0 mm 1 m/s 711 mmHg 47%
20:00 +26°C° 0 mm 1 m/s 711 mmHg 49%
21:00 +24°C° 0 mm 1 m/s 711 mmHg 51%
22:00 +23°C° 0 mm 1 m/s 711 mmHg 52%
23:00 +22°C° 0 mm 1 m/s 711 mmHg 54%
Arată mai mult

Formular de consimțământ

Meteoprog și furnizorii noștri de servicii pot stoca și accesa date personale, precum cookies, identificatori de dispozitiv sau alte tehnologii similare pe dispozitivul dumneavoastră și procesa astfel de date pentru a personaliza conținutul și reclamele, dar și pentru a oferi caracteristici de social media și pentru a analiza traficul.

  • Stocarea și/sau accesarea informațiilor pe dispozitivul dumneavoastră

    Cookies, identificatori de dispozitiv sau alte informații pot fi stocate sau accesate pe dispozitiv în scopurile indicate mai sus.

  • Reclame și conținut personalizat, evaluarea reclamelor și a conținutului, informații despre audiențe și dezvoltarea produselor

    Reclamele și conținutul pot fi personalizate pe baza unui profil. Pot fi adăugate date suplimentare pentru a personaliza mai bine reclamele și conținutul. Performanța reclamelor și conținutului poate fi măsurată. Pot fi obținute informații despre utilizatorii care au văzut reclamele și conținutul. Aceste date pot fi utilizate pentru a dezvolta sau îmbunătăți experiența utilizatorilor, sistemele și software-ul.

Dând clic pe ‘Sunt de acord’, permiteți utilizarea cookie-urilor menționate, a identificatorilor de dispozitiv, balizelor web sau altor tehnologii similare. Setările pot fi modificate din browser-ul dispozitivului dumneavoastră.

În anumite scopuri, interesele legitime pot prima asupra consimțământului. Puteți citi mai multe informații în acest sens în Politica privind Confidențialitatea Datelor și Cookie.